CLX185 EDDK-BIKF

Flight info

Callsign CLX185
Flight time 2h 49m
Altitude 32000
Route WIPUR1K WIPUR DCT DIXAT DCT EEL DCT SUTEB DCT GIBSU DCT BUDON DCT BAMRA DCT MATIK/M080F320 DCT NASBU NASBU2H
Aircraft B748/H-SDE3FGHIM1M2RWXY/LB1

Departure

Time 2026-04-21 05:52
Airport Cologne Bonn Airport (EDDK)

Arrival

Time 2026-04-21 08:42
Airport Keflavik International Airport (BIKF)
Time Latitude Longitude Altitude Speed Heading
2026-04-21 05:27 50.86812 7.13918 259 ft 0 kts 227°
2026-04-21 05:40 50.86816 7.13927 259 ft 1 kts 228°
2026-04-21 05:40 50.86825 7.13942 259 ft 1 kts 228°
2026-04-21 05:40 50.86834 7.13957 258 ft 1 kts 227°
2026-04-21 05:41 50.86843 7.13971 258 ft 1 kts 223°
2026-04-21 05:41 50.86852 7.13984 258 ft 1 kts 217°
2026-04-21 05:41 50.86864 7.13993 258 ft 1 kts 190°
2026-04-21 05:41 50.86876 7.13990 257 ft 1 kts 149°
2026-04-21 05:42 50.86886 7.13976 257 ft 1 kts 136°
2026-04-21 05:42 50.86894 7.13965 257 ft 0 kts 137°
2026-04-21 05:45 50.86893 7.13966 257 ft 0 kts 137°
2026-04-21 05:46 50.86871 7.13997 258 ft 7 kts 137°
2026-04-21 05:46 50.86834 7.14053 259 ft 7 kts 137°
2026-04-21 05:46 50.86796 7.14101 260 ft 6 kts 146°
2026-04-21 05:46 50.86752 7.14132 261 ft 7 kts 159°
2026-04-21 05:47 50.86709 7.14176 262 ft 8 kts 141°
2026-04-21 05:47 50.86660 7.14245 263 ft 9 kts 139°
2026-04-21 05:47 50.86597 7.14264 265 ft 10 kts 204°
2026-04-21 05:47 50.86548 7.14149 266 ft 14 kts 242°
2026-04-21 05:48 50.86496 7.13977 265 ft 19 kts 245°
2026-04-21 05:48 50.86430 7.13758 263 ft 22 kts 244°
2026-04-21 05:48 50.86371 7.13560 260 ft 19 kts 244°
2026-04-21 05:48 50.86310 7.13365 256 ft 17 kts 244°
2026-04-21 05:49 50.86254 7.13181 254 ft 19 kts 244°
2026-04-21 05:49 50.86193 7.12977 251 ft 22 kts 244°
2026-04-21 05:49 50.86129 7.12765 250 ft 17 kts 244°
2026-04-21 05:49 50.86097 7.12605 248 ft 15 kts 271°
2026-04-21 05:50 50.86097 7.12456 248 ft 12 kts 255°
2026-04-21 05:50 50.86042 7.12389 247 ft 10 kts 151°
2026-04-21 05:50 50.86039 7.12476 248 ft 6 kts 56°
2026-04-21 05:50 50.86048 7.12500 248 ft 0 kts 63°
2026-04-21 05:51 50.86054 7.12520 248 ft 10 kts 63°
2026-04-21 05:51 50.86155 7.12848 252 ft 60 kts 64°
2026-04-21 05:52 50.86432 7.13761 264 ft 123 kts 64°
2026-04-21 05:52 50.86893 7.15259 300 ft 174 kts 63°
2026-04-21 05:52 50.87453 7.17029 849 ft 180 kts 62°
2026-04-21 05:52 50.88035 7.18825 1453 ft 192 kts 64°
2026-04-21 05:53 50.88594 7.20671 1869 ft 184 kts 64°
2026-04-21 05:53 50.89137 7.22448 2317 ft 174 kts 64°
2026-04-21 05:53 50.89679 7.24189 2837 ft 181 kts 64°
2026-04-21 05:53 50.90240 7.26001 3396 ft 188 kts 65°
2026-04-21 05:54 50.90821 7.27903 3881 ft 203 kts 65°
2026-04-21 05:54 50.91456 7.29991 4445 ft 209 kts 65°
2026-04-21 05:54 50.92058 7.31980 4874 ft 198 kts 65°
2026-04-21 05:54 50.92708 7.33864 5350 ft 197 kts 50°
2026-04-21 05:55 50.93724 7.35281 5866 ft 198 kts 35°
2026-04-21 05:55 50.95048 7.35992 6417 ft 221 kts
2026-04-21 05:55 50.96682 7.35795 7132 ft 244 kts 354°
2026-04-21 05:55 50.98308 7.35309 7593 ft 241 kts 353°
2026-04-21 05:56 50.99981 7.34785 8154 ft 251 kts 351°
2026-04-21 05:56 51.01696 7.33685 8727 ft 266 kts 336°
2026-04-21 05:56 51.03420 7.32073 9283 ft 264 kts 326°
2026-04-21 05:56 51.04816 7.29907 9775 ft 260 kts 315°
2026-04-21 05:57 51.06320 7.28056 10308 ft 243 kts 342°
2026-04-21 05:57 51.07981 7.27023 10860 ft 241 kts 343°
2026-04-21 05:57 51.09618 7.25946 11174 ft 260 kts 341°
2026-04-21 05:57 51.11351 7.24799 11498 ft 277 kts 341°
2026-04-21 05:58 51.13170 7.23602 11816 ft 295 kts 341°
2026-04-21 05:58 51.15112 7.22234 12139 ft 314 kts 339°
2026-04-21 05:58 51.17151 7.20739 12442 ft 332 kts 341°
2026-04-21 05:58 51.19353 7.19409 12763 ft 349 kts 343°
2026-04-21 05:59 51.21696 7.18050 13068 ft 367 kts 343°
2026-04-21 05:59 51.24128 7.16633 13434 ft 383 kts 342°
2026-04-21 05:59 51.26670 7.15148 13875 ft 394 kts 345°
2026-04-21 06:00 51.32087 7.12801 14874 ft 414 kts 347°
2026-04-21 06:00 51.34886 7.11632 15416 ft 422 kts 348°
2026-04-21 06:00 51.37701 7.10429 16048 ft 427 kts 347°
2026-04-21 06:00 51.40559 7.09213 16725 ft 430 kts 347°
2026-04-21 06:01 51.43457 7.07977 17355 ft 435 kts 347°
2026-04-21 06:01 51.46385 7.06726 17949 ft 440 kts 347°
2026-04-21 06:01 51.49343 7.05461 18537 ft 445 kts 347°
2026-04-21 06:01 51.52371 7.04162 19063 ft 450 kts 347°
2026-04-21 06:02 51.55411 7.02859 19598 ft 456 kts 347°
2026-04-21 06:02 51.58482 7.01537 20136 ft 460 kts 347°
2026-04-21 06:02 51.61581 7.00202 20670 ft 465 kts 347°
2026-04-21 06:02 51.64704 6.98857 21200 ft 468 kts 347°
2026-04-21 06:03 51.67855 6.97496 21760 ft 471 kts 347°
2026-04-21 06:03 51.70988 6.96138 22312 ft 474 kts 347°
2026-04-21 06:03 51.74190 6.94753 22862 ft 477 kts 347°
2026-04-21 06:03 51.77380 6.93367 23408 ft 480 kts 347°
2026-04-21 06:04 51.80611 6.91965 23965 ft 482 kts 347°
2026-04-21 06:04 51.83830 6.90563 24518 ft 484 kts 347°
2026-04-21 06:04 51.87103 6.89135 25062 ft 487 kts 347°
2026-04-21 06:04 51.90362 6.87712 25600 ft 489 kts 347°
2026-04-21 06:05 51.93630 6.86283 26139 ft 490 kts 347°
2026-04-21 06:05 51.96892 6.84855 26664 ft 478 kts 347°
2026-04-21 06:05 52.00022 6.83477 27166 ft 463 kts 347°
2026-04-21 06:05 52.03111 6.82123 27685 ft 464 kts 347°
2026-04-21 06:06 52.06235 6.80751 28118 ft 467 kts 347°
2026-04-21 06:06 52.09366 6.79375 28447 ft 473 kts 347°
2026-04-21 06:06 52.12551 6.77971 28797 ft 478 kts 347°
2026-04-21 06:06 52.15767 6.76551 29149 ft 482 kts 347°
2026-04-21 06:07 52.19006 6.75120 29498 ft 487 kts 347°
2026-04-21 06:07 52.22295 6.73665 29844 ft 491 kts 347°
2026-04-21 06:07 52.25558 6.72215 30188 ft 493 kts 347°
2026-04-21 06:07 52.28893 6.70733 30537 ft 497 kts 347°
2026-04-21 06:08 52.32241 6.69244 30881 ft 500 kts 347°
2026-04-21 06:08 52.35582 6.67754 31200 ft 503 kts 347°
2026-04-21 06:08 52.38931 6.66259 31434 ft 502 kts 347°
2026-04-21 06:08 52.42294 6.64756 31667 ft 502 kts 347°
2026-04-21 06:09 52.45672 6.63242 31900 ft 502 kts 347°
2026-04-21 06:09 52.48994 6.61751 32105 ft 502 kts 347°
2026-04-21 06:09 52.52353 6.60244 32281 ft 503 kts 347°
2026-04-21 06:10 52.59061 6.57219 32312 ft 502 kts 347°
2026-04-21 06:10 52.65797 6.54177 32314 ft 503 kts 347°
2026-04-21 06:11 52.72504 6.51139 32306 ft 502 kts 347°
2026-04-21 06:11 52.79240 6.48074 32307 ft 502 kts 347°
2026-04-21 06:12 52.85958 6.45013 32460 ft 504 kts 347°
2026-04-21 06:12 52.92645 6.41955 32646 ft 503 kts 347°
2026-04-21 06:12 52.96025 6.40402 32775 ft 502 kts 347°
2026-04-21 06:13 52.99367 6.38867 32906 ft 504 kts 347°
2026-04-21 06:13 53.02747 6.37312 33048 ft 503 kts 347°
2026-04-21 06:13 53.06119 6.35758 33187 ft 503 kts 347°
2026-04-21 06:13 53.09489 6.34202 33315 ft 503 kts 346°
2026-04-21 06:14 53.12855 6.32644 33451 ft 503 kts 346°
2026-04-21 06:14 53.16211 6.31089 33583 ft 502 kts 346°
2026-04-21 06:14 53.19546 6.29544 33715 ft 502 kts 346°
2026-04-21 06:14 53.22924 6.27975 33843 ft 502 kts 346°
2026-04-21 06:15 53.26266 6.26418 33987 ft 501 kts 346°
2026-04-21 06:15 53.29581 6.24874 34129 ft 501 kts 346°
2026-04-21 06:15 53.32918 6.23315 34255 ft 502 kts 346°
2026-04-21 06:16 53.39656 6.20162 34351 ft 502 kts 346°
2026-04-21 06:16 53.46331 6.17025 34365 ft 501 kts 346°
2026-04-21 06:17 53.53006 6.13882 34371 ft 502 kts 346°
2026-04-21 06:17 53.59705 6.10716 34553 ft 502 kts 346°
2026-04-21 06:17 53.63081 6.09116 34668 ft 503 kts 346°
2026-04-21 06:18 53.66414 6.07535 34760 ft 502 kts 346°
2026-04-21 06:18 53.73122 6.04341 34950 ft 501 kts 346°
2026-04-21 06:18 53.76473 6.02743 35051 ft 502 kts 346°
2026-04-21 06:19 53.79825 6.01142 35142 ft 501 kts 346°
2026-04-21 06:19 53.83154 5.99549 35253 ft 502 kts 346°
2026-04-21 06:19 53.86533 5.97930 35346 ft 503 kts 346°
2026-04-21 06:20 53.93191 5.94729 35536 ft 502 kts 346°
2026-04-21 06:20 53.99906 5.91491 35733 ft 501 kts 346°
2026-04-21 06:20 54.03300 5.89851 35834 ft 501 kts 346°
2026-04-21 06:21 54.06692 5.88208 35928 ft 502 kts 346°
2026-04-21 06:21 54.10064 5.86572 36040 ft 501 kts 346°
2026-04-21 06:21 54.13410 5.84947 36133 ft 501 kts 346°
2026-04-21 06:22 54.20160 5.81658 36328 ft 501 kts 346°
2026-04-21 06:22 54.26880 5.78375 36366 ft 501 kts 346°
2026-04-21 06:23 54.33559 5.75099 36369 ft 502 kts 346°
2026-04-21 06:23 54.40223 5.71820 36380 ft 502 kts 346°
2026-04-21 06:24 54.46880 5.68532 36388 ft 502 kts 346°
2026-04-21 06:24 54.53593 5.65207 36381 ft 503 kts 346°
2026-04-21 06:25 54.60277 5.61883 36390 ft 502 kts 346°
2026-04-21 06:25 54.66976 5.58539 36405 ft 502 kts 346°
2026-04-21 06:26 54.73659 5.55193 36390 ft 501 kts 346°
2026-04-21 06:26 54.80322 5.51848 36411 ft 503 kts 346°
2026-04-21 06:27 54.87043 5.48458 36401 ft 503 kts 346°
2026-04-21 06:27 54.93746 5.45064 36404 ft 503 kts 346°
2026-04-21 06:28 55.00379 5.41386 36371 ft 507 kts 336°
2026-04-21 06:28 55.06346 5.34919 36412 ft 513 kts 329°
2026-04-21 06:29 55.12227 5.27950 36408 ft 513 kts 327°
2026-04-21 06:29 55.18063 5.20954 36422 ft 512 kts 328°
2026-04-21 06:30 55.23956 5.14068 36421 ft 511 kts 328°
2026-04-21 06:30 55.29835 5.07188 36421 ft 511 kts 329°
2026-04-21 06:31 55.35734 5.00256 36420 ft 510 kts 328°
2026-04-21 06:31 55.41593 4.93344 36414 ft 511 kts 328°
2026-04-21 06:32 55.47506 4.86340 36434 ft 512 kts 328°
2026-04-21 06:32 55.53370 4.79369 36446 ft 513 kts 328°
2026-04-21 06:33 55.59252 4.72347 36444 ft 511 kts 328°
2026-04-21 06:33 55.65086 4.65359 36454 ft 510 kts 328°
2026-04-21 06:34 55.70959 4.58298 36449 ft 510 kts 328°
2026-04-21 06:34 55.76792 4.51257 36461 ft 510 kts 328°
2026-04-21 06:35 55.82664 4.44144 36447 ft 512 kts 328°
2026-04-21 06:35 55.88495 4.37056 36451 ft 513 kts 328°
2026-04-21 06:36 55.94333 4.29930 36453 ft 512 kts 327°
2026-04-21 06:36 56.00182 4.22763 36455 ft 512 kts 327°
2026-04-21 06:37 56.06035 4.15566 36455 ft 511 kts 328°
2026-04-21 06:37 56.11848 4.08393 36466 ft 511 kts 327°
2026-04-21 06:38 56.17643 4.01212 36465 ft 511 kts 327°
2026-04-21 06:38 56.23485 3.93949 36476 ft 511 kts 327°
2026-04-21 06:39 56.29283 3.86711 36477 ft 511 kts 327°
2026-04-21 06:39 56.35126 3.79390 36480 ft 511 kts 327°
2026-04-21 06:40 56.40911 3.72113 36490 ft 511 kts 327°
2026-04-21 06:40 56.46729 3.64768 36498 ft 511 kts 327°
2026-04-21 06:41 56.52530 3.57413 36500 ft 512 kts 328°
2026-04-21 06:41 56.58333 3.50028 36503 ft 511 kts 328°
2026-04-21 06:42 56.64101 3.42661 36503 ft 511 kts 328°
2026-04-21 06:42 56.69875 3.35255 36494 ft 512 kts 327°
2026-04-21 06:43 56.75468 3.27317 36466 ft 516 kts 313°
2026-04-21 06:43 56.77512 3.21918 36524 ft 519 kts 300°
2026-04-21 06:43 56.79189 3.16135 36535 ft 523 kts 298°
2026-04-21 06:44 56.82374 3.04295 36511 ft 522 kts 297°
2026-04-21 06:44 56.85505 2.92382 36504 ft 522 kts 297°
2026-04-21 06:45 56.88629 2.80430 36503 ft 520 kts 297°
2026-04-21 06:45 56.91732 2.68512 36499 ft 520 kts 297°
2026-04-21 06:46 56.94834 2.56541 36509 ft 522 kts 297°
2026-04-21 06:46 56.97903 2.44632 36514 ft 524 kts 297°
2026-04-21 06:47 57.00990 2.32594 36517 ft 522 kts 296°
2026-04-21 06:47 57.04050 2.20592 36507 ft 522 kts 296°
2026-04-21 06:48 57.07089 2.08619 36518 ft 521 kts 296°
2026-04-21 06:48 57.10136 1.96547 36525 ft 521 kts 296°
2026-04-21 06:49 57.13152 1.84532 36517 ft 521 kts 296°
2026-04-21 06:49 57.16175 1.72424 36510 ft 521 kts 296°
2026-04-21 06:50 57.19167 1.60377 36518 ft 521 kts 296°
2026-04-21 06:50 57.22162 1.48246 36522 ft 521 kts 296°
2026-04-21 06:51 57.25140 1.36117 36525 ft 520 kts 296°
2026-04-21 06:51 57.28098 1.24006 36523 ft 520 kts 296°
2026-04-21 06:52 57.31041 1.11889 36532 ft 520 kts 296°
2026-04-21 06:52 57.33989 0.99682 36537 ft 521 kts 295°
2026-04-21 06:53 57.36921 0.87473 36532 ft 522 kts 296°
2026-04-21 06:53 57.39846 0.75223 36540 ft 522 kts 296°
2026-04-21 06:54 57.42740 0.63035 36538 ft 521 kts 296°
2026-04-21 06:54 57.45641 0.50748 36535 ft 521 kts 296°
2026-04-21 06:55 57.48520 0.38486 36531 ft 521 kts 296°
2026-04-21 06:55 57.51391 0.26187 36529 ft 521 kts 295°
2026-04-21 06:56 57.54251 0.13863 36527 ft 521 kts 295°
2026-04-21 06:56 57.57105 0.01490 36530 ft 522 kts 295°
2026-04-21 06:57 57.59942 -0.10875 36541 ft 521 kts 295°
2026-04-21 06:57 57.62764 -0.23255 36550 ft 521 kts 295°
2026-04-21 06:58 57.65575 -0.35656 36555 ft 521 kts 295°
2026-04-21 06:58 57.68364 -0.48037 36549 ft 521 kts 295°
2026-04-21 06:59 57.72044 -0.59431 36578 ft 513 kts 316°
2026-04-21 06:59 57.77117 -0.68865 36553 ft 514 kts 317°
2026-04-21 07:00 57.82190 -0.78134 36556 ft 514 kts 317°
2026-04-21 07:00 57.87283 -0.87480 36558 ft 514 kts 317°
2026-04-21 07:01 57.92383 -0.96886 36560 ft 514 kts 317°
2026-04-21 07:01 57.99992 -1.11005 36567 ft 514 kts 318°
2026-04-21 07:02 58.05085 -1.20503 36569 ft 514 kts 318°
2026-04-21 07:02 58.10110 -1.29923 36576 ft 514 kts 318°
2026-04-21 07:03 58.15158 -1.39425 36585 ft 514 kts 318°
2026-04-21 07:03 58.20206 -1.48966 36592 ft 514 kts 318°
2026-04-21 07:04 58.25232 -1.58508 36591 ft 514 kts 318°
2026-04-21 07:04 58.30269 -1.68108 36591 ft 514 kts 317°
2026-04-21 07:05 58.35296 -1.77734 36582 ft 513 kts 317°
2026-04-21 07:05 58.40301 -1.87360 36586 ft 513 kts 317°
2026-04-21 07:06 58.45281 -1.96976 36596 ft 513 kts 317°
2026-04-21 07:06 58.50257 -2.06628 36595 ft 513 kts 317°
2026-04-21 07:07 58.55258 -2.16370 36589 ft 514 kts 317°
2026-04-21 07:07 58.60220 -2.26077 36600 ft 513 kts 317°
2026-04-21 07:08 58.65193 -2.35848 36601 ft 513 kts 318°
2026-04-21 07:08 58.70148 -2.45628 36600 ft 513 kts 318°
2026-04-21 07:09 58.75109 -2.55462 36603 ft 513 kts 318°
2026-04-21 07:09 58.80062 -2.65323 36613 ft 513 kts 317°
2026-04-21 07:10 58.84982 -2.75158 36615 ft 513 kts 317°
2026-04-21 07:10 58.89919 -2.85073 36610 ft 512 kts 317°
2026-04-21 07:11 58.94840 -2.95000 36616 ft 513 kts 317°
2026-04-21 07:11 58.99741 -3.04928 36619 ft 513 kts 317°
2026-04-21 07:12 59.04635 -3.14887 36624 ft 513 kts 317°
2026-04-21 07:12 59.09535 -3.24904 36626 ft 513 kts 317°
2026-04-21 07:13 59.14427 -3.34946 36625 ft 514 kts 317°
2026-04-21 07:13 59.19318 -3.45036 36624 ft 513 kts 317°
2026-04-21 07:14 59.24155 -3.55055 36617 ft 512 kts 317°
2026-04-21 07:14 59.29016 -3.65173 36623 ft 511 kts 316°
2026-04-21 07:15 59.33861 -3.75300 36618 ft 511 kts 316°
2026-04-21 07:15 59.38710 -3.85485 36616 ft 512 kts 317°
2026-04-21 07:16 59.43550 -3.95716 36618 ft 512 kts 316°
2026-04-21 07:16 59.48130 -4.06349 36627 ft 514 kts 313°
2026-04-21 07:17 59.52591 -4.17356 36628 ft 516 kts 312°
2026-04-21 07:17 59.57026 -4.28400 36633 ft 515 kts 313°
2026-04-21 07:18 59.61490 -4.39338 36633 ft 513 kts 313°
2026-04-21 07:18 59.65929 -4.50246 36632 ft 515 kts 313°
2026-04-21 07:19 59.70393 -4.61269 36628 ft 514 kts 313°
2026-04-21 07:19 59.74823 -4.72262 36614 ft 513 kts 313°
2026-04-21 07:20 59.79270 -4.83349 36616 ft 514 kts 313°
2026-04-21 07:20 59.83686 -4.94414 36619 ft 515 kts 313°
2026-04-21 07:21 59.88102 -5.05528 36623 ft 516 kts 313°
2026-04-21 07:21 59.92510 -5.16680 36630 ft 516 kts 313°
2026-04-21 07:22 59.96868 -5.27769 36631 ft 505 kts 313°
2026-04-21 07:22 60.01196 -5.38809 36634 ft 513 kts 313°
2026-04-21 07:23 60.05582 -5.50054 36658 ft 513 kts 313°
2026-04-21 07:23 60.09932 -5.61260 36676 ft 514 kts 313°
2026-04-21 07:24 60.14285 -5.72535 36697 ft 515 kts 312°
2026-04-21 07:24 60.18662 -5.83929 36727 ft 515 kts 312°
2026-04-21 07:25 60.22970 -5.95202 36748 ft 515 kts 312°
2026-04-21 07:25 60.27325 -6.06654 36774 ft 515 kts 312°
2026-04-21 07:26 60.31615 -6.17986 36788 ft 514 kts 313°
2026-04-21 07:26 60.33766 -6.23691 36442 ft 514 kts 312°
2026-04-21 07:26 60.35938 -6.29464 36463 ft 515 kts 312°
2026-04-21 07:27 60.40234 -6.40925 36519 ft 515 kts 312°
2026-04-21 07:27 60.44548 -6.52498 36569 ft 517 kts 313°
2026-04-21 07:28 60.48837 -6.64056 36631 ft 516 kts 313°
2026-04-21 07:28 60.53102 -6.75610 36665 ft 516 kts 312°
2026-04-21 07:29 60.57365 -6.87219 36691 ft 516 kts 312°
2026-04-21 07:29 60.61639 -6.98914 36733 ft 513 kts 312°
2026-04-21 07:30 60.65876 -7.10562 36772 ft 516 kts 312°
2026-04-21 07:30 60.70127 -7.22313 36796 ft 515 kts 312°
2026-04-21 07:31 60.74342 -7.34029 36824 ft 514 kts 312°
2026-04-21 07:31 60.78538 -7.45743 36865 ft 516 kts 312°
2026-04-21 07:32 60.82735 -7.57530 36888 ft 512 kts 312°
2026-04-21 07:32 60.86921 -7.69336 36912 ft 513 kts 311°
2026-04-21 07:33 60.91092 -7.81163 36925 ft 513 kts 311°
2026-04-21 07:33 60.95225 -7.92951 36949 ft 514 kts 311°
2026-04-21 07:34 60.98737 -8.05793 36865 ft 516 kts 307°
2026-04-21 07:34 61.02811 -8.17886 36861 ft 511 kts 313°
2026-04-21 07:35 61.06987 -8.29520 36856 ft 511 kts 313°
2026-04-21 07:35 61.10996 -8.41676 36867 ft 512 kts 309°
2026-04-21 07:36 61.14779 -8.54086 36909 ft 513 kts 307°
2026-04-21 07:36 61.18520 -8.66615 36950 ft 512 kts 307°
2026-04-21 07:37 61.22285 -8.79054 36971 ft 514 kts 308°
2026-04-21 07:37 61.26076 -8.91621 37001 ft 512 kts 308°
2026-04-21 07:38 61.29830 -9.04127 37020 ft 514 kts 308°
2026-04-21 07:38 61.33572 -9.16666 37040 ft 513 kts 307°
2026-04-21 07:39 61.37298 -9.29217 37062 ft 512 kts 307°
2026-04-21 07:39 61.41010 -9.41784 37088 ft 513 kts 307°
2026-04-21 07:40 61.44715 -9.54399 37113 ft 512 kts 307°
2026-04-21 07:40 61.48390 -9.66981 37133 ft 512 kts 306°
2026-04-21 07:41 61.52064 -9.79630 37139 ft 511 kts 306°
2026-04-21 07:41 61.55738 -9.92350 37147 ft 509 kts 306°
2026-04-21 07:42 61.59393 -10.05072 37163 ft 510 kts 306°
2026-04-21 07:42 61.63026 -10.17793 37179 ft 510 kts 306°
2026-04-21 07:43 61.66638 -10.30508 37173 ft 510 kts 306°
2026-04-21 07:43 61.70227 -10.43214 37181 ft 510 kts 306°
2026-04-21 07:44 61.73811 -10.55976 37194 ft 507 kts 306°
2026-04-21 07:44 61.77390 -10.68787 37199 ft 509 kts 305°
2026-04-21 07:45 61.80949 -10.81603 37203 ft 508 kts 305°
2026-04-21 07:45 61.84508 -10.94485 37213 ft 508 kts 305°
2026-04-21 07:46 61.88040 -11.07351 37218 ft 509 kts 305°
2026-04-21 07:46 61.91550 -11.20211 37210 ft 507 kts 305°
2026-04-21 07:47 61.95062 -11.33149 37205 ft 505 kts 305°
2026-04-21 07:47 61.98527 -11.45982 37199 ft 506 kts 305°
2026-04-21 07:48 62.01996 -11.58914 37216 ft 505 kts 305°
2026-04-21 07:48 62.05505 -11.72062 37191 ft 506 kts 304°
2026-04-21 07:49 62.08968 -11.85124 37171 ft 503 kts 304°
2026-04-21 07:49 62.12425 -11.98227 37193 ft 504 kts 304°
2026-04-21 07:50 62.15834 -12.11233 37109 ft 505 kts 304°
2026-04-21 07:50 62.17530 -12.17732 36969 ft 504 kts 304°
2026-04-21 07:50 62.19240 -12.24297 36843 ft 503 kts 304°
2026-04-21 07:51 62.20958 -12.30926 36741 ft 501 kts 304°
2026-04-21 07:51 62.22648 -12.37454 36639 ft 502 kts 304°
2026-04-21 07:51 62.24329 -12.43968 36496 ft 502 kts 304°
2026-04-21 07:51 62.26008 -12.50498 36270 ft 499 kts 305°
2026-04-21 07:52 62.27666 -12.56968 36062 ft 500 kts 305°
2026-04-21 07:52 62.29338 -12.63502 35850 ft 500 kts 305°
2026-04-21 07:52 62.30993 -12.69994 35636 ft 500 kts 304°
2026-04-21 07:52 62.32666 -12.76579 35417 ft 499 kts 304°
2026-04-21 07:53 62.34304 -12.83044 35202 ft 496 kts 304°
2026-04-21 07:53 62.35958 -12.89587 34988 ft 498 kts 304°
2026-04-21 07:53 62.37584 -12.96047 34726 ft 494 kts 304°
2026-04-21 07:53 62.39210 -13.02510 34470 ft 498 kts 304°
2026-04-21 07:54 62.40866 -13.09114 34206 ft 497 kts 304°
2026-04-21 07:54 62.42486 -13.15605 33942 ft 499 kts 304°
2026-04-21 07:54 62.44130 -13.22203 33684 ft 500 kts 304°
2026-04-21 07:54 62.45758 -13.28762 33420 ft 497 kts 304°
2026-04-21 07:55 62.47382 -13.35321 33163 ft 499 kts 304°
2026-04-21 07:55 62.49023 -13.41969 32899 ft 502 kts 304°
2026-04-21 07:55 62.50661 -13.48618 32639 ft 504 kts 304°
2026-04-21 07:55 62.52275 -13.55199 32377 ft 504 kts 304°
2026-04-21 07:56 62.53919 -13.61915 32109 ft 506 kts 304°
2026-04-21 07:56 62.55560 -13.68653 31838 ft 505 kts 303°
2026-04-21 07:56 62.57194 -13.75368 31572 ft 509 kts 303°
2026-04-21 07:56 62.58825 -13.82101 31298 ft 507 kts 303°
2026-04-21 07:57 62.60482 -13.88953 31030 ft 513 kts 302°
2026-04-21 07:57 62.62107 -13.95708 30749 ft 509 kts 302°
2026-04-21 07:57 62.63744 -14.02524 30487 ft 514 kts 302°
2026-04-21 07:57 62.65393 -14.09422 30219 ft 511 kts 302°
2026-04-21 07:58 62.67018 -14.16232 29958 ft 512 kts 302°
2026-04-21 07:58 62.68621 -14.22996 29671 ft 499 kts 302°
2026-04-21 07:58 62.70224 -14.29755 29422 ft 512 kts 302°
2026-04-21 07:58 62.71838 -14.36583 29147 ft 501 kts 302°
2026-04-21 07:59 62.73449 -14.43425 28885 ft 509 kts 302°
2026-04-21 07:59 62.75040 -14.50197 28611 ft 500 kts 302°
2026-04-21 07:59 62.76637 -14.57017 28355 ft 504 kts 302°
2026-04-21 07:59 62.78198 -14.63707 28085 ft 504 kts 302°
2026-04-21 08:00 62.79778 -14.70495 27816 ft 499 kts 301°
2026-04-21 08:00 62.81348 -14.77272 27551 ft 503 kts 301°
2026-04-21 08:00 62.82923 -14.84084 27283 ft 500 kts 301°
2026-04-21 08:00 62.84474 -14.90811 27027 ft 501 kts 301°
2026-04-21 08:01 62.86047 -14.97652 26770 ft 502 kts 301°
2026-04-21 08:01 62.87606 -15.04458 26513 ft 503 kts 301°
2026-04-21 08:01 62.89173 -15.11311 26261 ft 512 kts 301°
2026-04-21 08:02 62.92376 -15.25392 25739 ft 521 kts 301°
2026-04-21 08:02 62.93973 -15.32458 25473 ft 526 kts 300°
2026-04-21 08:02 62.95575 -15.39577 25197 ft 512 kts 300°
2026-04-21 08:02 62.97098 -15.46397 24937 ft 497 kts 300°
2026-04-21 08:03 62.98616 -15.53190 24705 ft 499 kts 300°
2026-04-21 08:03 63.00201 -15.60285 24484 ft 501 kts 300°
2026-04-21 08:03 63.01757 -15.67278 24267 ft 496 kts 299°
2026-04-21 08:03 63.03287 -15.74181 24049 ft 499 kts 299°
2026-04-21 08:04 63.04794 -15.80991 23838 ft 499 kts 299°
2026-04-21 08:04 63.06297 -15.87822 23622 ft 494 kts 299°
2026-04-21 08:04 63.07787 -15.94617 23401 ft 491 kts 299°
2026-04-21 08:04 63.09282 -16.01433 23196 ft 497 kts 299°
2026-04-21 08:05 63.10776 -16.08284 22986 ft 490 kts 299°
2026-04-21 08:05 63.12246 -16.15056 22781 ft 486 kts 299°
2026-04-21 08:05 63.13732 -16.21898 22594 ft 494 kts 299°
2026-04-21 08:05 63.15193 -16.28668 22385 ft 484 kts 299°
2026-04-21 08:06 63.16633 -16.35369 22177 ft 482 kts 299°
2026-04-21 08:06 63.18073 -16.42066 21979 ft 480 kts 299°
2026-04-21 08:06 63.19484 -16.48663 21780 ft 478 kts 299°
2026-04-21 08:06 63.20901 -16.55300 21583 ft 478 kts 299°
2026-04-21 08:07 63.22312 -16.61943 21382 ft 476 kts 299°
2026-04-21 08:07 63.23723 -16.68590 21181 ft 476 kts 298°
2026-04-21 08:07 63.25116 -16.75185 20980 ft 474 kts 298°
2026-04-21 08:07 63.26505 -16.81784 20773 ft 467 kts 298°
2026-04-21 08:08 63.27838 -16.88152 20573 ft 452 kts 298°
2026-04-21 08:08 63.29178 -16.94551 20405 ft 460 kts 298°
2026-04-21 08:08 63.30501 -17.00883 20230 ft 456 kts 298°
2026-04-21 08:08 63.31839 -17.07321 20051 ft 454 kts 298°
2026-04-21 08:09 63.33176 -17.13756 19877 ft 456 kts 298°
2026-04-21 08:09 63.34477 -17.20044 19699 ft 454 kts 298°
2026-04-21 08:09 63.35785 -17.26400 19507 ft 443 kts 298°
2026-04-21 08:09 63.37038 -17.32509 19308 ft 435 kts 298°
2026-04-21 08:10 63.38308 -17.38693 19150 ft 441 kts 298°
2026-04-21 08:10 63.39602 -17.45030 18959 ft 438 kts 298°
2026-04-21 08:10 63.40868 -17.51231 18791 ft 439 kts 298°
2026-04-21 08:10 63.42116 -17.57382 18611 ft 435 kts 298°
2026-04-21 08:11 63.43343 -17.63443 18443 ft 435 kts 297°
2026-04-21 08:11 63.44569 -17.69522 18253 ft 423 kts 297°
2026-04-21 08:11 63.45757 -17.75439 18056 ft 417 kts 297°
2026-04-21 08:11 63.46952 -17.81381 17902 ft 419 kts 297°
2026-04-21 08:12 63.48127 -17.87259 17730 ft 407 kts 297°
2026-04-21 08:12 63.49256 -17.92922 17573 ft 406 kts 297°
2026-04-21 08:12 63.50407 -17.98703 17425 ft 405 kts 297°
2026-04-21 08:12 63.51575 -18.04586 17271 ft 404 kts 297°
2026-04-21 08:13 63.52719 -18.10364 17130 ft 404 kts 297°
2026-04-21 08:13 63.53851 -18.16093 16989 ft 402 kts 296°
2026-04-21 08:13 63.54972 -18.21794 16846 ft 402 kts 296°
2026-04-21 08:13 63.56123 -18.27662 16677 ft 394 kts 296°
2026-04-21 08:14 63.57203 -18.33193 16519 ft 383 kts 297°
2026-04-21 08:14 63.58374 -18.39191 16377 ft 387 kts 296°
2026-04-21 08:14 63.59559 -18.45288 16193 ft 376 kts 296°
2026-04-21 08:14 63.60726 -18.51314 16007 ft 372 kts 296°
2026-04-21 08:15 63.61878 -18.57260 15843 ft 372 kts 296°
2026-04-21 08:15 63.63020 -18.63183 15690 ft 371 kts 296°
2026-04-21 08:15 63.64089 -18.68741 15511 ft 370 kts 295°
2026-04-21 08:15 63.65226 -18.74667 15359 ft 370 kts 295°
2026-04-21 08:16 63.66361 -18.80608 15176 ft 369 kts 295°
2026-04-21 08:16 63.67468 -18.86413 15017 ft 367 kts 295°
2026-04-21 08:16 63.68560 -18.92162 14801 ft 367 kts 295°
2026-04-21 08:16 63.69623 -18.97770 14587 ft 359 kts 295°
2026-04-21 08:17 63.70649 -19.03206 14384 ft 351 kts 295°
2026-04-21 08:17 63.71660 -19.08575 14240 ft 354 kts 295°
2026-04-21 08:17 63.72681 -19.14006 14067 ft 344 kts 295°
2026-04-21 08:17 63.73650 -19.19186 13878 ft 331 kts 295°
2026-04-21 08:18 63.74603 -19.24284 13693 ft 319 kts 295°
2026-04-21 08:18 63.75521 -19.29221 13536 ft 307 kts 295°
2026-04-21 08:18 63.76405 -19.33975 13378 ft 296 kts 295°
2026-04-21 08:18 63.77256 -19.38563 13320 ft 280 kts 295°
2026-04-21 08:19 63.78051 -19.42864 13268 ft 270 kts 295°
2026-04-21 08:19 63.78836 -19.47106 13168 ft 272 kts 295°
2026-04-21 08:19 63.79621 -19.51352 13039 ft 272 kts 295°
2026-04-21 08:19 63.80393 -19.55544 12906 ft 272 kts 295°
2026-04-21 08:20 63.81176 -19.59803 12764 ft 272 kts 295°
2026-04-21 08:20 63.81958 -19.64070 12633 ft 271 kts 295°
2026-04-21 08:20 63.82728 -19.68280 12513 ft 271 kts 294°
2026-04-21 08:20 63.83492 -19.72472 12403 ft 271 kts 294°
2026-04-21 08:21 63.84236 -19.76708 12298 ft 271 kts 294°
2026-04-21 08:21 63.84994 -19.80895 12213 ft 271 kts 294°
2026-04-21 08:21 63.85733 -19.84964 12109 ft 271 kts 294°
2026-04-21 08:21 63.86483 -19.89122 12011 ft 271 kts 294°
2026-04-21 08:22 63.87237 -19.93300 11920 ft 270 kts 294°
2026-04-21 08:22 63.87970 -19.97385 11822 ft 269 kts 294°
2026-04-21 08:22 63.88706 -20.01479 11717 ft 267 kts 294°
2026-04-21 08:22 63.89448 -20.05588 11613 ft 267 kts 294°
2026-04-21 08:23 63.90194 -20.09720 11502 ft 268 kts 294°
2026-04-21 08:23 63.90938 -20.13822 11395 ft 268 kts 294°
2026-04-21 08:23 63.91681 -20.17887 11289 ft 268 kts 294°
2026-04-21 08:23 63.92430 -20.22011 11180 ft 264 kts 294°
2026-04-21 08:24 63.93159 -20.26018 11040 ft 256 kts 294°
2026-04-21 08:24 63.93879 -20.29982 10940 ft 254 kts 294°
2026-04-21 08:24 63.94595 -20.33917 10938 ft 253 kts 294°
2026-04-21 08:24 63.95143 -20.37998 10912 ft 255 kts 277°
2026-04-21 08:25 63.95200 -20.42334 10968 ft 256 kts 271°
2026-04-21 08:25 63.95187 -20.46670 10939 ft 251 kts 271°
2026-04-21 08:25 63.95152 -20.50863 10947 ft 251 kts 269°
2026-04-21 08:25 63.95083 -20.54907 10953 ft 251 kts 270°
2026-04-21 08:26 63.95062 -20.59018 10953 ft 251 kts 271°
2026-04-21 08:26 63.95053 -20.63147 10873 ft 252 kts 271°
2026-04-21 08:26 63.95054 -20.67176 10766 ft 250 kts 271°
2026-04-21 08:26 63.95145 -20.71205 10658 ft 250 kts 274°
2026-04-21 08:27 63.95255 -20.75227 10559 ft 249 kts 274°
2026-04-21 08:27 63.95385 -20.79208 10451 ft 248 kts 276°
2026-04-21 08:27 63.95558 -20.83203 10342 ft 248 kts 276°
2026-04-21 08:27 63.95725 -20.87089 10235 ft 248 kts 276°
2026-04-21 08:28 63.95894 -20.91032 10132 ft 248 kts 276°
2026-04-21 08:28 63.96075 -20.95041 10024 ft 248 kts 276°
2026-04-21 08:28 63.96261 -20.99102 9919 ft 249 kts 276°
2026-04-21 08:28 63.96446 -21.03123 9819 ft 248 kts 276°
2026-04-21 08:29 63.96619 -21.07018 9721 ft 249 kts 275°
2026-04-21 08:29 63.96767 -21.10950 9622 ft 249 kts 275°
2026-04-21 08:29 63.96873 -21.14847 9518 ft 248 kts 272°
2026-04-21 08:29 63.96925 -21.18726 9421 ft 247 kts 272°
2026-04-21 08:30 63.96924 -21.22677 9317 ft 247 kts 269°
2026-04-21 08:30 63.96878 -21.26649 9218 ft 246 kts 269°
2026-04-21 08:30 63.96833 -21.30564 9096 ft 239 kts 270°
2026-04-21 08:30 63.96808 -21.34347 9135 ft 235 kts 271°
2026-04-21 08:31 63.96832 -21.38065 9000 ft 235 kts 272°
2026-04-21 08:31 63.96882 -21.41752 8873 ft 235 kts 272°
2026-04-21 08:31 63.96933 -21.45488 8695 ft 234 kts 272°
2026-04-21 08:31 63.96982 -21.49127 8489 ft 228 kts 272°
2026-04-21 08:32 63.97030 -21.52701 8302 ft 227 kts 272°
2026-04-21 08:32 63.97103 -21.56282 8131 ft 226 kts 274°
2026-04-21 08:32 63.97224 -21.59810 7961 ft 225 kts 275°
2026-04-21 08:32 63.97346 -21.63355 7790 ft 223 kts 275°
2026-04-21 08:33 63.97469 -21.66818 7619 ft 222 kts 275°
2026-04-21 08:33 63.97642 -21.70312 7436 ft 221 kts 277°
2026-04-21 08:33 63.97813 -21.73773 7223 ft 216 kts 276°
2026-04-21 08:33 63.97975 -21.77066 6924 ft 205 kts 276°
2026-04-21 08:34 63.98133 -21.80206 6588 ft 199 kts 276°
2026-04-21 08:34 63.98287 -21.83305 6230 ft 195 kts 277°
2026-04-21 08:34 63.98349 -21.86389 5868 ft 192 kts 270°
2026-04-21 08:34 63.98349 -21.89376 5538 ft 191 kts 271°
2026-04-21 08:35 63.98345 -21.92370 5219 ft 187 kts 271°
2026-04-21 08:35 63.98336 -21.95275 4875 ft 185 kts 270°
2026-04-21 08:35 63.98326 -21.98181 4528 ft 182 kts 271°
2026-04-21 08:35 63.98312 -22.01025 4138 ft 176 kts 271°
2026-04-21 08:36 63.98298 -22.03796 3738 ft 171 kts 271°
2026-04-21 08:36 63.98278 -22.06499 3354 ft 168 kts 271°
2026-04-21 08:36 63.98258 -22.09132 3006 ft 167 kts 271°
2026-04-21 08:36 63.98270 -22.11751 2969 ft 160 kts 275°
2026-04-21 08:37 63.98314 -22.14311 2967 ft 159 kts 274°
2026-04-21 08:37 63.98347 -22.16846 2960 ft 158 kts 273°
2026-04-21 08:37 63.98375 -22.19382 2984 ft 162 kts 273°
2026-04-21 08:37 63.98400 -22.21956 2978 ft 165 kts 272°
2026-04-21 08:38 63.98418 -22.24589 2978 ft 167 kts 272°
2026-04-21 08:38 63.98434 -22.27253 2971 ft 168 kts 272°
2026-04-21 08:38 63.98447 -22.29870 2762 ft 167 kts 272°
2026-04-21 08:38 63.98456 -22.32515 2550 ft 167 kts 272°
2026-04-21 08:39 63.98464 -22.35156 2331 ft 167 kts 272°
2026-04-21 08:39 63.98472 -22.37786 2105 ft 168 kts 272°
2026-04-21 08:39 63.98478 -22.40442 1872 ft 167 kts 272°
2026-04-21 08:39 63.98486 -22.43066 1637 ft 165 kts 272°
2026-04-21 08:40 63.98492 -22.45675 1403 ft 164 kts 272°
2026-04-21 08:40 63.98494 -22.48254 1176 ft 163 kts 272°
2026-04-21 08:40 63.98495 -22.50823 948 ft 161 kts 272°
2026-04-21 08:40 63.98495 -22.53329 723 ft 158 kts 272°
2026-04-21 08:41 63.98496 -22.55780 513 ft 155 kts 272°
2026-04-21 08:41 63.98505 -22.58259 302 ft 156 kts 272°
2026-04-21 08:41 63.98504 -22.60600 164 ft 118 kts 270°
2026-04-21 08:41 63.98508 -22.61821 150 ft 64 kts 271°
2026-04-21 08:42 63.98506 -22.62824 144 ft 62 kts 271°
2026-04-21 08:42 63.98503 -22.63336 136 ft 29 kts 270°
2026-04-21 08:42 63.98546 -22.63789 133 ft 29 kts 299°
2026-04-21 08:42 63.98634 -22.64106 130 ft 24 kts 324°
2026-04-21 08:43 63.98798 -22.64163 130 ft 21 kts
2026-04-21 08:43 63.98855 -22.63939 134 ft 17 kts 89°
2026-04-21 08:43 63.98855 -22.63672 136 ft 17 kts 91°
2026-04-21 08:43 63.98856 -22.63409 140 ft 16 kts 89°
2026-04-21 08:44 63.98856 -22.63148 143 ft 15 kts 91°
2026-04-21 08:44 63.98871 -22.62916 146 ft 14 kts 49°
2026-04-21 08:44 63.98971 -22.62826 146 ft 15 kts 16°
2026-04-21 08:44 63.99089 -22.62749 146 ft 17 kts 17°
2026-04-21 08:45 63.99194 -22.62684 146 ft 10 kts
2026-04-21 08:45 63.99236 -22.62731 146 ft 7 kts 280°
2026-04-21 08:45 63.99240 -22.62843 146 ft 7 kts 269°
2026-04-21 08:45 63.99240 -22.62895 146 ft 0 kts 270°